TimeCDT,TemperatureF,Dew PointF,Humidity,Sea Level PressureIn,VisibilityMPH,Wind Direction,Wind SpeedMPH,Gust SpeedMPH,PrecipitationIn,Events,Conditions,WindDirDegrees,DateUTC
12:53 AM,41.0,36.0,82,30.17,7.0,Calm,Calm,-,N/A,,Clear,0,2011-11-01 05:53:00
1:53 AM,39.9,36.0,86,30.18,9.0,Calm,Calm,-,N/A,,Clear,0,2011-11-01 06:53:00
2:53 AM,39.0,36.0,89,30.17,9.0,Calm,Calm,-,N/A,,Clear,0,2011-11-01 07:53:00
3:53 AM,37.9,35.1,89,30.18,10.0,Calm,Calm,-,N/A,,Clear,0,2011-11-01 08:53:00
4:53 AM,37.0,34.0,89,30.19,10.0,Calm,Calm,-,N/A,,Clear,0,2011-11-01 09:53:00
5:53 AM,37.0,34.0,89,30.21,10.0,Calm,Calm,-,N/A,,Clear,0,2011-11-01 10:53:00
6:53 AM,37.0,35.1,93,30.21,8.0,Calm,Calm,-,N/A,,Clear,0,2011-11-01 11:53:00
8:53 AM,46.0,39.0,76,30.23,10.0,Calm,Calm,-,N/A,,Clear,0,2011-11-01 13:53:00
9:53 AM,55.0,39.0,55,30.24,10.0,SSW,6.9,-,N/A,,Clear,210,2011-11-01 14:53:00
10:53 AM,63.0,36.0,37,30.24,10.0,SSW,11.5,-,N/A,,Clear,200,2011-11-01 15:53:00
11:53 AM,66.9,34.0,30,30.22,8.0,SSW,10.4,-,N/A,,Clear,200,2011-11-01 16:53:00
12:53 PM,70.0,35.1,28,30.20,10.0,SSW,10.4,-,N/A,,Clear,200,2011-11-01 17:53:00
1:53 PM,72.0,32.0,23,30.17,10.0,SSW,13.8,21.9,N/A,,Clear,200,2011-11-01 18:53:00
2:53 PM,73.0,34.0,24,30.14,6.0,SSW,12.7,19.6,N/A,,Haze,200,2011-11-01 19:53:00
3:53 PM,73.0,37.0,27,30.13,10.0,South,11.5,-,N/A,,Clear,180,2011-11-01 20:53:00
4:53 PM,71.1,36.0,28,30.14,10.0,South,11.5,-,N/A,,Clear,180,2011-11-01 21:53:00
5:53 PM,66.9,36.0,32,30.14,10.0,South,6.9,-,N/A,,Clear,180,2011-11-01 22:53:00
6:53 PM,61.0,36.0,39,30.14,10.0,South,5.8,-,N/A,,Clear,170,2011-11-01 23:53:00
7:53 PM,60.1,35.1,39,30.14,10.0,SSE,6.9,-,N/A,,Clear,160,2011-11-02 00:53:00
8:53 PM,59.0,35.1,41,30.14,10.0,South,8.1,-,N/A,,Clear,170,2011-11-02 01:53:00
9:53 PM,55.0,35.1,47,30.14,10.0,South,5.8,-,N/A,,Clear,170,2011-11-02 02:53:00
10:53 PM,50.0,36.0,59,30.14,10.0,SSE,4.6,-,N/A,,Clear,150,2011-11-02 03:53:00
11:53 PM,52.0,35.1,53,30.14,10.0,SSE,4.6,-,N/A,,Clear,160,2011-11-02 04:53:00